sat.trackr.live / text

‹ back to catalog

STARLINK-4002

NORAD 52612 · 2022-052Q

PAYLOAD ACTIVE UNKNOWN

§ Identity

Operator
Country
US
Launch date
2022-05-14
Launch site
AFETR
Launch vehicle
Mass (kg)
RCS (m²)

Purposes: comms

External: N2YO · Heavens-Above · Gunter

§ Orbital elements

Epoch: 2026-09-20T04:20:17.403072Z

Period
93.85 min
Inclination
53.1598°
Eccentricity
0.0001234
Mean motion
15.34384246 rev/d
Perigee alt
461.9 km
Apogee alt
463.6 km
Semi-major
6,840.9 km
B*
1.6806e-5
RAAN
116.8726°
Arg perigee
77.7353°
Mean anomaly
282.3788°
Rev number
24,034

§ Raw data

STARLINK-40021 52612U 22052Q   26263.18075698  .00000191  00000+0  16806-4 0  99952 52612  53.1598 116.8726 0001234  77.7353 282.3788 15.34384246240343

JSON: /api/v1/satellites/52612 · /tle

For live sub-satellite position, see the globe view (requires WebGL).

§ Visibility from observer

Set your observer location to see the next 7 days of passes ≥ 10°. The values pass through the URL so the page stays shareable.

No JS? Fill the form by hand. The geolocation button needs JavaScript.